Location: Ciserano
(45.5833°N, 9.6000°E)
Time: 09:29:28
(UTC+00:00)

Cosmos 1833 Rocket - Pass Details

Date: 29 November 2020
Orbit: 834 x 838 km, 71.0° (Epoch: 25 January)

Event Time Altitude Azimuth Distance (km) Brightness Sun altitude
Exits shadow 05:07:19 - 342° (NNW) 3,074 5.3 -15.7°
Reaches altitude 10° 05:09:10 10° 350° (N) 2,458 4.9 -15.4°
Maximum altitude 05:14:06 30° 52° (NE) 1,453 4.3 -14.5°
Drops below altitude 10° 05:19:00 10° 113° (ESE) 2,443 6.6 -13.7°
Sets 05:21:43 0° 124° (ESE) 3,373 7.4 -13.2°
